Precipitable_Water
0.92 0.87 0.84 0.80 0.82 0.83 0.80 0.80 0.80 0.78 0.87 0.86 0.82 0.75 0.72 0.74 0.70 0.63 0.60 0.60 0.59 0.58 0.57 0.55 0.58 0.59 0.58 0.56 0.53 0.48 0.46 0.45 0.44 0.43 0.43 0.47 0.48 0.50 0.51 0.53 0.55 0.56
0.95 0.92 0.86 0.84 0.87 0.83 0.81 0.83 0.80 0.84 0.87 0.88 0.86 0.80 0.75 0.74 0.69 0.61 0.54 0.53 0.55 0.55 0.56 0.57 0.58 0.56 0.53 0.52 0.50 0.47 0.47 0.48 0.47 0.50 0.47 0.44 0.43 0.46 0.47 0.49 0.50 0.48
0.99 0.95 0.86 0.85 0.85 0.80 0.80 0.80 0.82 0.87 0.87 0.88 0.87 0.81 0.73 0.72 0.61 0.60 0.59 0.56 0.55 0.53 0.53 0.54 0.52 0.51 0.51 0.49 0.46 0.42 0.38 0.39 0.40 0.43 0.43 0.43 0.45 0.44 0.47 0.49 0.50 0.49
1.06 0.98 0.88 0.90 0.85 0.80 0.78 0.79 0.81 0.84 0.86 0.85 0.83 0.80 0.73 0.68 0.63 0.60 0.58 0.55 0.52 0.51 0.54 0.57 0.56 0.54 0.50 0.48 0.47 0.46 0.45 0.44 0.46 0.46 0.44 0.45 0.43 0.43 0.44 0.46 0.44 0.43
1.06 1.04 0.96 0.91 0.83 0.81 0.78 0.75 0.76 0.80 0.85 0.85 0.84 0.81 0.75 0.71 0.66 0.63 0.60 0.56 0.56 0.56 0.56 0.55 0.56 0.56 0.55 0.52 0.51 0.54 0.57 0.58 0.58 0.54 0.50 0.50 0.51 0.50 0.50 0.50 0.51 0.50
1.10 1.08 0.99 0.90 0.86 0.83 0.77 0.75 0.74 0.80 0.85 0.84 0.81 0.78 0.73 0.68 0.64 0.63 0.64 0.60 0.60 0.59 0.59 0.60 0.62 0.62 0.61 0.61 0.62 0.61 0.58 0.58 0.60 0.61 0.59 0.58 0.59 0.62 0.61 0.58 0.54 0.51
1.10 1.07 1.01 0.95 0.91 0.85 0.80 0.75 0.78 0.81 0.84 0.83 0.80 0.77 0.73 0.66 0.62 0.63 0.62 0.64 0.63 0.64 0.64 0.64 0.63 0.62 0.65 0.64 0.63 0.60 0.60 0.62 0.59 0.58 0.54 0.51 0.54 0.56 0.58 0.59 0.60 0.59
1.09 1.08 1.05 0.98 0.92 0.85 0.80 0.81 0.83 0.83 0.82 0.80 0.77 0.78 0.75 0.70 0.65 0.64 0.63 0.64 0.63 0.64 0.65 0.63 0.63 0.63 0.62 0.64 0.60 0.58 0.58 0.61 0.62 0.64 0.61 0.60 0.62 0.59 0.54 0.60 0.60 0.56
1.08 1.06 1.06 0.96 0.90 0.87 0.86 0.87 0.85 0.82 0.82 0.78 0.74 0.77 0.74 0.73 0.71 0.67 0.65 0.63 0.63 0.64 0.62 0.62 0.63 0.64 0.65 0.64 0.60 0.59 0.57 0.59 0.64 0.64 0.64 0.62 0.63 0.65 0.69 0.69 0.65 0.64
1.03 1.02 1.00 0.96 0.91 0.90 0.90 0.90 0.81 0.81 0.82 0.82 0.81 0.75 0.72 0.74 0.73 0.67 0.67 0.68 0.64 0.64 0.61 0.60 0.63 0.62 0.65 0.65 0.62 0.63 0.63 0.62 0.63 0.65 0.66 0.72 0.74 0.75 0.78 0.79 0.81 0.77
1.02 1.04 1.04 1.03 0.99 0.95 0.98 0.95 0.86 0.82 0.82 0.83 0.84 0.78 0.72 0.73 0.73 0.67 0.66 0.68 0.68 0.67 0.67 0.65 0.66 0.64 0.65 0.67 0.68 0.70 0.69 0.70 0.71 0.73 0.77 0.79 0.82 0.85 0.84 0.83 0.84 0.83
1.00 1.03 1.05 1.08 1.05 1.00 1.01 0.99 0.98 0.93 0.85 0.82 0.83 0.77 0.79 0.77 0.76 0.67 0.68 0.66 0.68 0.67 0.69 0.70 0.71 0.71 0.71 0.73 0.75 0.77 0.81 0.81 0.81 0.81 0.81 0.82 0.82 0.84 0.84 0.86 0.86 0.86
1.02 1.04 1.10 1.11 1.11 1.09 1.03 1.10 1.03 0.98 0.90 0.76 0.81 0.79 0.76 0.75 0.76 0.70 0.69 0.69 0.70 0.69 0.71 0.71 0.75 0.78 0.81 0.85 0.89 0.89 0.88 0.89 0.86 0.86 0.85 0.86 0.88 0.88 0.87 0.87 0.87 0.90
1.10 1.11 1.12 1.11 1.11 1.10 1.04 0.97 1.02 0.95 0.88 0.81 0.82 0.82 0.80 0.76 0.76 0.71 0.73 0.70 0.74 0.73 0.74 0.79 0.84 0.87 0.90 0.94 0.96 0.96 0.95 0.94 0.93 0.91 0.90 0.90 0.92 0.94 0.95 0.95 0.94 0.95
1.09 1.10 1.10 1.08 1.07 1.05 1.01 0.99 1.00 1.02 0.99 0.96 0.86 0.84 0.89 0.88 0.86 0.81 0.77 0.75 0.73 0.80 0.83 0.93 0.95 0.93 0.95 0.93 0.95 0.96 0.94 0.93 0.96 0.97 0.98 0.96 0.99 1.01 1.01 1.04 1.07 1.05
1.05 1.05 1.09 1.07 1.06 1.03 1.00 0.98 0.97 0.99 0.99 0.97 0.96 0.97 0.98 0.97 0.95 0.94 0.92 0.89 0.86 0.86 0.92 0.90 0.94 0.98 0.97 0.93 0.96 1.01 1.01 1.01 0.99 1.04 1.06 1.07 1.04 1.01 1.01 0.99 1.05 1.07
1.03 1.04 1.08 1.03 1.01 1.00 0.99 0.96 0.96 0.96 0.97 0.97 0.97 0.96 0.94 0.95 0.94 0.92 0.91 0.90 0.91 0.92 0.92 0.94 0.96 0.97 0.96 0.94 0.95 0.98 0.97 0.98 1.00 0.98 0.95 0.94 0.98 0.99 0.94 0.95 1.03 1.08
1.00 1.00 1.00 0.99 0.98 0.95 0.94 0.97 0.98 1.00 0.99 0.98 0.97 0.95 0.94 0.92 0.88 0.89 0.89 0.88 0.89 0.92 0.94 0.95 0.96 0.97 0.92 0.87 0.89 0.90 0.92 0.92 0.94 0.93 0.96 0.95 0.92 0.95 0.96 0.96 0.98 0.98
0.87 0.85 0.87 0.86 0.89 0.88 0.92 0.93 0.94 0.94 0.94 0.94 0.95 0.97 0.95 0.90 0.90 0.89 0.87 0.88 0.89 0.91 0.92 0.95 0.97 0.98 0.93 0.90 0.89 0.87 0.89 0.92 0.92 0.95 0.91 0.91 0.93 0.94 0.92 0.93 0.95 0.95
0.83 0.82 0.80 0.81 0.84 0.89 0.88 0.89 0.91 0.89 0.94 0.96 0.93 0.90 0.86 0.83 0.84 0.83 0.84 0.83 0.86 0.89 0.93 0.94 0.96 0.94 0.89 0.88 0.88 0.88 0.89 0.90 0.92 0.94 0.94 0.93 0.93 0.94 0.91 0.92 0.94 0.98
0.63 0.64 0.64 0.67 0.76 0.82 0.80 0.82 0.87 0.89 0.88 0.90 0.88 0.86 0.83 0.82 0.82 0.79 0.80 0.83 0.87 0.91 0.92 0.95 0.93 0.89 0.87 0.89 0.91 0.91 0.90 0.90 0.91 0.94 0.93 0.93 0.92 0.92 0.93 0.94 0.98 0.98
0.66 0.65 0.65 0.64 0.63 0.64 0.65 0.68 0.78 0.83 0.81 0.85 0.84 0.83 0.83 0.83 0.82 0.78 0.74 0.74 0.79 0.84 0.87 0.86 0.86 0.86 0.85 0.85 0.86 0.86 0.87 0.88 0.88 0.88 0.88 0.86 0.87 0.90 0.94 0.96 0.96 0.96
0.71 0.68 0.67 0.66 0.67 0.66 0.65 0.65 0.65 0.72 0.75 0.80 0.80 0.80 0.77 0.75 0.73 0.73 0.72 0.69 0.69 0.73 0.77 0.80 0.80 0.83 0.85 0.87 0.88 0.89 0.88 0.87 0.87 0.87 0.85 0.84 0.87 0.88 0.90 0.89 0.89 0.89
0.70 0.70 0.69 0.69 0.69 0.68 0.67 0.68 0.66 0.64 0.64 0.68 0.68 0.70 0.71 0.74 0.76 0.79 0.81 0.80 0.78 0.77 0.77 0.77 0.79 0.83 0.86 0.86 0.85 0.85 0.86 0.88 0.89 0.86 0.82 0.87 0.87 0.87 0.83 0.78 0.72 0.73
0.67 0.67 0.68 0.69 0.68 0.68 0.67 0.67 0.67 0.66 0.65 0.64 0.64 0.65 0.65 0.68 0.72 0.72 0.73 0.76 0.77 0.76 0.77 0.76 0.77 0.78 0.78 0.77 0.79 0.83 0.88 0.89 0.84 0.80 0.80 0.78 0.78 0.74 0.71 0.63 0.57 0.55
0.63 0.64 0.64 0.65 0.66 0.66 0.67 0.66 0.66 0.65 0.64 0.64 0.65 0.64 0.63 0.64 0.67 0.68 0.68 0.70 0.73 0.72 0.75 0.75 0.75 0.73 0.70 0.72 0.76 0.81 0.83 0.82 0.78 0.71 0.74 0.74 0.75 0.71 0.62 0.59 0.53 0.49
Wind_Speed
13 14 14 12 11 10 10 9 9 8 8 7 6 6 6 5 4 4 3 3 3 2 2 1 1 1 1 1 1 1 2 2 2 2 2 2 2 2 2 2 3 3
13 14 14 13 12 11 11 10 9 9 8 7 7 7 6 6 5 4 3 3 3 2 1 1 1 1 1 1 1 1 2 2 2 2 2 2 2 2 2 2 3 3
13 14 14 14 13 12 12 11 11 10 9 8 7 7 7 6 5 4 4 4 3 2 1 1 1 1 1 1 1 2 2 2 2 2 2 2 3 3 3 3 3 3
13 13 14 14 13 13 13 12 11 10 9 8 8 7 7 6 6 5 4 4 3 2 2 1 1 1 1 1 1 2 2 2 2 3 3 3 3 3 3 3 3 3
13 13 13 14 13 13 13 12 11 9 9 9 8 7 7 6 6 5 5 4 4 3 2 2 1 1 1 1 2 2 2 2 3 3 3 3 4 4 4 4 3 3
14 13 13 14 13 13 13 12 11 10 9 9 8 7 7 6 6 5 5 5 4 4 3 3 3 2 2 2 3 3 3 3 4 4 4 4 4 4 5 5 4 4
15 14 14 13 13 12 12 12 11 10 10 9 8 8 7 7 7 6 5 5 5 5 5 5 4 4 4 4 4 4 4 5 5 5 6 6 6 6 6 6 6 6
15 15 14 13 13 12 12 12 11 11 11 10 10 9 8 7 7 7 7 6 6 6 6 6 6 6 6 6 6 5 6 6 6 7 7 7 7 8 8 7 7 7
15 14 14 13 13 12 12 12 13 12 12 11 11 10 10 9 8 8 8 8 7 7 8 8 8 8 8 7 7 7 8 8 8 8 8 8 9 9 9 9 9 9
14 14 13 13 13 13 13 13 14 13 12 12 11 11 11 10 9 9 8 8 8 8 9 9 9 9 9 9 9 10 10 10 10 10 9 10 10 9 9 10 10 10
13 13 13 13 13 13 13 13 13 13 13 12 12 11 11 11 10 10 10 10 10 9 10 10 10 10 11 11 11 11 11 11 11 11 11 11 11 11 11 11 11 12
13 13 13 13 13 12 12 12 12 12 12 12 12 11 12 11 11 11 11 11 11 11 11 11 11 11 12 12 12 12 12 12 12 13 13 14 14 14 14 14 14 14
12 12 13 13 13 13 12 11 12 12 12 12 12 12 12 12 12 13 13 13 13 13 13 13 13 13 13 13 13 13 13 13 14 14 15 16 16 16 16 16 16 16
12 12 13 14 14 14 13 12 12 12 12 12 12 12 13 13 13 13 13 14 14 14 14 15 15 14 14 14 14 15 16 16 17 17 17 17 17 17 17 17 18 17
12 12 13 13 14 14 14 14 13 13 13 13 13 13 13 14 14 14 15 15 15 15 16 16 16 16 16 17 17 17 18 18 19 19 19 18 18 17 17 18 19 18
11 12 12 12 12 12 13 14 14 14 14 14 14 14 14 15 15 15 16 16 17 17 17 18 18 19 19 19 19 19 19 19 20 20 19 19 19 19 20 20 20 20
11 11 11 11 11 12 12 13 14 14 15 15 16 16 16 17 17 17 18 18 18 19 19 19 19 20 20 21 21 21 21 21 21 21 21 21 22 22 22 22 22 21
11 11 11 12 12 13 13 14 15 15 16 17 17 18 19 19 20 20 20 20 20 21 21 21 21 22 22 23 23 23 23 24 24 24 24 24 24 24 24 23 23 22
11 12 12 13 13 14 14 15 16 16 17 17 18 18 19 20 21 22 22 22 23 23 23 23 24 24 24 25 26 26 25 26 26 26 26 26 25 25 24 24 23 22
13 13 13 14 15 15 16 16 17 18 18 18 19 19 20 21 22 23 23 24 24 24 24 25 25 25 26 26 27 27 27 27 27 27 27 26 25 24 24 23 23 22
15 15 16 16 16 17 18 18 19 20 20 21 21 21 22 22 23 23 24 25 25 26 26 26 26 27 27 27 27 27 27 27 27 27 27 26 25 24 23 22 21 21
17 18 18 18 19 19 20 20 21 21 22 22 23 23 23 23 24 24 25 25 25 26 27 27 28 28 28 29 28 28 28 28 27 27 27 26 25 24 22 21 20 20
19 20 20 21 21 21 21 21 22 22 23 23 24 24 25 25 26 26 27 27 27 28 28 29 29 29 29 29 28 28 28 28 27 26 26 26 24 23 23 22 21 21
21 21 22 22 22 22 22 23 24 25 25 25 26 27 27 27 28 28 28 29 29 29 29 29 29 29 29 29 28 27 28 27 26 25 26 26 24 23 24 24 24 23
22 23 23 23 23 24 25 26 27 27 27 28 29 30 30 30 30 30 30 30 30 30 31 30 30 30 30 30 29 29 28 27 26 26 26 26 24 24 24 25 25 24
25 25 25 26 27 28 29 29 30 31 31 32 33 33 32 32 33 32 32 32 32 32 32 32 31 31 31 31 31 30 29 29 28 28 28 27 26 25 25 25 25 25
Wind_Direction
234 230 230 233 236 239 244 252 260 266 274 274 265 262 265 263 259 261 269 270 271 280 286 285 284 295 320 331 334 343 349 353 352 343 331 316 302 286 289 301 296 284
231 228 227 232 236 240 243 248 256 265 271 269 261 258 259 258 255 255 258 257 255 259 266 280 302 311 317 322 330 335 335 338 333 325 321 316 307 295 295 300 298 289
230 227 225 229 234 238 243 249 256 263 264 259 256 255 253 252 249 243 243 245 243 241 244 266 299 328 342 341 341 337 329 327 320 312 308 305 298 291 292 294 293 289
225 224 224 229 235 240 245 249 253 255 251 246 248 248 245 244 238 233 233 234 230 226 225 236 281 320 341 342 337 331 324 323 319 315 312 308 302 296 294 296 296 295
221 223 227 234 240 242 243 245 246 243 238 237 241 240 237 236 231 228 229 227 223 224 231 242 262 289 319 326 318 308 304 304 302 302 303 303 302 302 300 297 297 296
225 228 233 239 241 240 240 239 236 231 228 231 233 232 233 234 231 228 226 226 227 232 241 250 262 278 292 296 297 293 286 284 284 286 289 292 294 296 297 298 297 295
229 233 237 239 237 236 235 230 225 224 226 229 231 231 233 234 234 233 230 231 235 238 245 254 265 278 287 291 292 286 279 279 282 283 285 285 287 288 289 291 292 290
231 234 236 233 229 229 228 224 224 228 233 235 234 232 232 234 237 237 235 235 237 241 249 258 268 276 282 284 283 278 276 277 278 281 283 283 285 286 286 286 286 285
229 229 226 223 224 227 227 228 232 237 240 239 235 232 233 238 240 238 235 236 240 247 255 261 267 271 274 274 272 270 270 273 275 279 281 282 283 284 283 283 284 283
222 221 218 219 225 228 230 234 238 240 241 238 234 233 236 240 241 239 238 241 247 255 259 263 264 265 267 268 267 266 267 269 272 274 275 277 280 282 280 280 282 282
216 216 216 219 225 227 231 235 237 239 239 236 234 235 237 240 241 242 245 249 255 260 262 263 262 262 264 265 265 267 267 269 270 271 273 275 278 280 279 279 281 281
215 217 219 221 224 226 230 235 237 237 237 235 237 238 239 242 244 247 252 256 260 263 263 263 262 262 264 264 265 267 268 269 270 271 274 276 276 277 277 278 280 280
220 221 224 226 228 229 234 239 239 238 238 237 239 241 243 246 248 251 255 258 262 263 263 264 263 261 262 262 264 267 268 269 271 273 274 275 275 275 275 276 278 279
231 231 232 233 235 237 240 242 241 240 242 242 244 247 249 250 251 254 257 258 261 263 264 265 264 262 262 263 264 267 269 269 271 274 275 275 276 275 275 276 277 276
242 242 241 239 239 242 244 245 245 245 245 246 249 252 253 253 255 258 260 260 261 263 264 265 266 264 264 264 264 267 270 271 272 274 275 276 278 278 277 277 276 274
247 245 242 239 240 243 245 246 248 248 247 248 252 253 254 256 258 260 262 262 263 264 265 267 267 265 263 264 264 266 270 273 275 275 275 277 277 277 278 278 275 273
248 245 243 243 245 248 248 248 249 251 252 253 256 256 257 258 260 261 263 264 264 265 266 267 267 265 265 266 267 268 270 273 275 275 276 277 276 276 278 278 274 272
247 247 249 250 253 254 254 254 255 257 259 259 260 261 262 261 262 263 265 265 266 266 266 267 267 267 268 269 271 272 272 273 274 275 276 277 276 276 277 276 273 270
248 250 253 257 259 259 260 260 261 262 263 263 264 266 266 266 265 266 266 266 266 266 267 268 268 268 269 271 272 274 274 274 274 275 275 276 276 275 275 274 271 267
252 256 260 263 264 265 265 265 265 266 267 267 269 270 270 270 269 269 269 268 267 267 267 268 268 268 270 272 272 273 274 274 274 274 274 274 274 274 273 271 268 264
257 260 263 265 267 268 269 270 269 269 270 271 271 273 273 273 272 271 270 269 268 269 269 269 270 271 272 272 272 273 274 274 273 273 272 272 273 273 270 267 264 261
262 263 264 266 268 269 270 271 271 272 272 272 273 274 275 275 274 273 272 271 270 270 270 271 272 274 274 274 273 274 273 273 273 272 271 270 270 268 265 264 263 259
265 266 266 267 268 269 270 271 272 273 273 273 272 274 275 275 274 274 273 272 271 270 270 271 273 274 275 275 275 274 273 272 271 270 269 268 267 264 262 261 260 258
267 268 268 268 268 270 272 273 274 275 275 274 274 274 275 275 275 275 274 273 272 271 271 271 273 273 274 274 274 272 272 271 269 269 268 265 263 262 260 259 260 260
268 269 269 269 270 272 274 275 276 276 277 277 276 276 276 276 275 274 274 273 272 272 272 272 273 273 272 272 271 270 269 268 267 267 265 261 261 262 261 259 259 259
268 269 270 270 272 273 275 275 276 276 277 278 278 277 276 276 275 273 273 272 272 272 273 272 272 273 271 270 269 267 266 266 265 265 263 260 260 262 260 259 259 259